Wind_Speed
7 5 3 2 4 3 4 3 1 4 3 1 1 3 3 4 2 3 6 5 11 16 14 13 11 11 10 9 8 7 5 4 5 7 7 7 6 6 6 8 9 9 8 9 8 8 7 7 6
5 3 1 1 4 5 4 3 7 3 2 3 2 2 3 2 2 6 10 6 14 17 15 13 11 11 10 9 8 6 6 7 7 7 6 6 6 7 7 8 8 8 8 8 8 9 9 8 8
2 1 3 2 3 5 1 4 3 2 3 3 1 1 1 2 3 9 4 12 16 14 14 13 11 10 10 9 6 5 7 7 7 6 6 6 7 7 8 9 9 9 9 10 9 9 9 9 9
2 3 2 5 8 6 3 2 1 3 4 3 2 3 2 3 2 3 13 15 16 14 14 13 11 11 10 8 7 7 7 7 6 7 7 7 8 8 8 9 9 10 10 9 9 9 9 9 10
2 2 4 4 7 4 6 5 3 4 2 5 4 1 1 3 4 8 15 15 15 14 13 13 11 11 10 9 8 8 7 6 6 6 7 7 7 8 8 9 9 10 9 9 10 11 11 11 11
3 2 5 9 10 4 5 6 4 6 3 4 4 3 2 3 7 10 14 14 14 14 13 13 12 10 9 9 8 8 7 5 6 6 5 6 8 9 9 10 10 9 10 10 10 11 11 11 10
2 3 5 7 6 4 4 5 7 5 4 4 1 2 3 6 7 11 13 13 13 13 14 13 12 10 9 8 7 6 5 3 2 3 5 8 10 11 11 10 9 10 10 11 11 11 11 11 11
2 2 3 5 5 4 3 4 1 5 3 2 1 3 3 8 13 13 13 13 13 13 13 13 12 11 10 8 6 4 2 1 1 4 7 9 11 11 10 10 10 10 10 11 12 12 13 12 13
2 5 7 5 5 0 1 4 3 0 3 3 4 1 4 15 17 15 13 11 13 13 13 12 12 11 9 8 7 4 3 1 2 5 8 10 9 9 8 9 10 10 12 13 14 14 15 15 14
5 5 7 1 2 2 1 3 1 3 5 6 6 4 9 15 17 17 16 15 16 16 14 13 11 10 9 7 6 5 3 1 2 5 7 8 8 8 9 9 10 11 13 14 14 14 14 13 12
4 6 4 3 6 4 3 4 2 4 8 10 9 9 12 16 18 18 18 18 18 16 14 13 12 11 9 7 6 4 3 1 2 5 7 7 6 7 7 8 9 11 13 12 13 12 11 13 13
5 8 5 1 2 2 4 3 5 9 9 2 3 4 11 14 16 20 19 17 17 17 15 15 14 12 10 8 6 5 3 2 1 4 6 5 6 6 7 8 10 9 10 11 13 13 14 12 10
7 4 4 6 6 7 5 12 11 15 15 11 5 4 9 12 17 18 17 16 16 17 17 16 16 14 13 11 8 6 4 2 2 2 4 5 4 5 7 8 9 8 10 12 13 15 15 12 11
1 5 8 6 9 7 7 9 3 8 2 7 11 12 14 14 17 16 17 18 19 18 18 17 17 15 14 11 9 7 6 3 1 1 2 4 4 5 6 7 8 8 9 11 13 12 14 12 10
1 5 7 10 6 6 6 10 15 17 6 9 9 8 9 13 14 20 20 20 21 20 19 19 18 17 14 11 10 8 6 4 1 1 2 2 3 4 5 6 7 9 9 10 11 11 11 12 11
2 2 4 2 6 2 7 13 2 1 7 12 12 8 7 13 16 19 18 18 19 18 20 19 19 19 16 13 11 9 7 3 2 1 1 2 3 4 5 6 7 9 9 10 9 10 10 12 12
3 5 7 4 6 3 8 8 2 1 3 5 7 8 9 8 15 18 18 18 19 20 20 20 20 20 18 15 13 10 7 4 2 1 1 1 3 4 4 5 7 11 8 9 8 7 11 11 13
8 5 4 6 4 5 7 20 16 10 9 10 9 9 8 10 13 16 14 18 19 20 20 21 20 20 18 16 13 10 7 5 4 2 2 2 2 4 4 5 7 11 8 9 8 7 8 10 7
2 4 6 2 0 4 13 18 18 16 13 15 14 13 11 11 10 11 9 15 20 21 22 23 23 22 21 17 11 7 6 6 5 4 3 1 1 3 4 5 7 11 8 8 8 7 8 9 11
9 5 6 5 1 4 9 17 19 17 15 15 16 14 13 10 10 10 12 17 22 23 23 23 23 24 21 17 13 7 8 6 5 6 4 2 1 2 4 5 7 10 8 8 8 9 7 6 11
14 16 10 5 5 4 9 17 13 5 9 9 11 9 8 11 12 12 14 18 21 23 24 24 24 24 21 17 14 9 8 6 6 6 5 3 2 1 4 5 6 7 7 7 7 7 7 6 6
13 14 14 10 4 6 2 8 9 4 9 8 10 10 9 9 9 11 14 17 19 20 20 21 23 23 20 18 14 11 6 6 6 7 7 5 3 2 3 5 6 6 6 5 5 6 6 6 5
5 5 10 9 9 5 9 7 7 3 9 13 13 12 9 9 11 12 13 17 17 19 21 20 22 20 20 17 13 10 7 5 7 7 7 5 4 2 3 4 6 7 6 4 4 5 6 5 4
12 8 6 3 3 5 10 10 8 9 9 5 4 11 10 11 11 11 14 16 17 18 19 20 21 18 18 17 14 11 9 9 8 8 7 5 4 3 2 3 5 6 6 4 3 3 4 3 4
6 10 2 2 3 6 4 7 13 7 9 6 6 12 11 11 12 13 14 17 19 20 20 19 20 18 17 16 14 12 10 10 9 9 7 7 5 4 2 3 3 5 5 3 2 2 3 3 2
10 8 5 7 6 2 3 9 6 8 4 8 5 11 12 12 11 12 13 17 19 20 20 19 19 17 18 16 14 12 11 9 8 8 7 7 6 5 4 3 3 4 3 3 2 1 2 3 3
7 7 2 5 2 2 6 7 10 11 13 9 8 11 14 14 13 14 14 18 19 20 20 20 19 17 17 17 14 13 12 11 10 10 9 7 7 6 5 4 3 3 3 4 3 2 3 5 5
8 10 4 2 6 8 7 6 8 3 13 8 10 10 13 13 14 13 13 18 19 19 19 18 18 18 19 17 16 14 13 12 12 11 9 8 7 6 6 5 5 3 4 3 4 4 4 6 9
7 6 4 3 5 5 8 10 9 14 8 14 15 13 13 14 14 14 13 18 19 18 19 19 18 17 18 19 16 15 14 13 13 11 9 8 8 8 7 6 6 5 5 5 3 4 4 5 9
18 17 13 9 10 6 5 12 3 5 3 5 12 11 11 12 12 13 14 18 19 19 19 19 19 19 19 19 17 16 14 14 13 12 11 10 8 8 7 6 6 6 6 6 6 5 6 6 8
Wind_Direction
326 324 318 246 242 250 238 202 316 205 205 98 103 269 336 5 320 358 138 122 142 152 156 167 176 168 144 133 121 115 106 81 81 74 67 58 46 34 23 17 13 6 4 355 348 346 338 322 310
328 321 266 145 252 234 187 161 213 214 85 124 138 176 229 85 69 106 140 163 149 150 155 170 181 156 144 131 128 120 106 99 88 76 64 51 38 27 19 16 11 7 0 355 348 343 337 325 309
328 17 252 245 237 240 259 186 176 153 167 186 208 288 326 99 107 135 125 142 147 151 161 174 180 160 138 136 138 118 105 96 88 73 51 36 31 24 15 12 9 3 352 344 342 337 331 326 319
285 179 134 246 236 254 267 156 208 179 174 212 229 224 146 45 91 124 144 142 148 151 161 170 177 148 140 141 131 116 109 99 79 59 46 39 31 20 11 6 357 352 351 344 334 330 329 323 317
45 244 225 247 250 255 241 258 258 228 174 167 194 159 131 99 99 133 148 150 152 151 153 163 167 151 143 138 130 122 114 98 80 64 54 40 24 17 11 2 356 352 346 342 334 327 324 321 318
170 281 236 239 239 241 252 217 218 229 211 151 204 200 112 129 144 146 154 156 158 154 152 152 160 157 153 149 141 131 120 104 84 59 32 12 2 355 348 345 350 351 342 339 335 330 327 325 319
224 215 259 271 270 262 206 164 219 224 214 202 99 223 106 158 149 147 154 157 157 157 154 155 155 160 167 167 158 146 128 111 83 14 2 358 353 346 343 347 351 353 349 343 339 334 329 323 318
178 240 241 232 254 253 150 186 218 220 190 96 233 224 156 148 149 145 150 157 161 160 161 162 162 161 160 156 171 165 157 133 19 1 355 351 348 347 350 354 345 348 347 346 340 335 329 320 313
178 229 240 246 208 301 149 226 163 353 243 198 183 225 93 142 148 148 153 160 167 169 171 171 171 169 165 155 167 176 179 171 356 353 350 352 354 355 359 356 355 353 348 341 334 328 325 323 322
212 223 226 241 256 289 276 266 229 245 209 221 200 159 142 154 164 169 175 178 182 180 179 178 178 176 170 164 167 172 178 197 335 346 348 354 357 359 0 0 359 355 348 344 338 335 336 339 326
187 237 220 239 236 273 279 256 246 245 242 237 228 188 171 175 186 190 194 192 189 184 181 182 182 183 177 174 174 173 186 205 320 341 352 357 5 3 5 360 357 353 353 357 353 347 339 332 330
226 242 240 273 199 216 239 298 257 234 249 4 245 141 175 193 198 199 198 192 185 184 186 186 187 187 183 178 178 180 177 207 307 335 354 10 13 20 8 3 357 0 359 358 355 349 339 334 331
233 251 223 250 249 253 273 256 262 259 251 246 208 196 206 209 210 209 204 194 187 188 189 191 190 189 190 183 184 188 193 201 274 346 2 19 25 21 12 5 3 4 359 1 360 352 353 347 343
264 263 269 270 252 246 244 261 204 242 221 224 219 234 231 220 214 203 200 196 191 191 192 190 193 192 192 186 187 192 196 218 255 349 17 20 34 23 11 8 10 359 355 359 2 351 1 357 345
252 290 279 239 238 242 211 254 234 249 223 228 218 238 220 215 209 205 202 202 196 195 190 191 190 192 192 189 187 193 200 206 202 159 18 35 40 17 12 9 6 0 357 356 358 11 17 17 10
231 218 258 110 177 218 208 259 268 111 225 244 238 222 204 207 205 205 202 204 200 192 190 187 188 191 190 190 187 189 200 195 195 165 81 69 44 20 10 13 7 6 8 2 10 16 9 13 13
216 253 217 290 199 156 217 278 47 255 221 239 221 210 204 200 207 205 204 206 199 194 185 184 186 188 188 186 186 188 194 188 196 176 137 86 27 28 10 13 17 19 8 10 9 4 14 14 19
225 231 239 245 164 211 231 260 271 257 271 266 244 239 232 210 199 189 205 205 202 191 186 182 180 184 183 182 182 186 192 192 183 179 161 103 31 28 17 16 20 22 18 17 14 13 13 18 16
199 252 266 265 110 244 245 263 267 271 262 259 252 246 236 217 197 196 190 187 185 185 180 179 176 179 180 175 171 183 193 189 181 173 166 130 51 30 20 13 13 22 25 12 9 6 7 14 7
215 246 262 273 193 248 291 281 278 262 254 243 243 243 238 213 205 198 180 179 179 180 180 177 175 180 182 184 183 181 179 192 182 176 165 171 91 41 26 20 19 31 33 16 13 12 353 22 18
225 223 224 248 324 230 300 277 255 245 243 240 238 244 238 229 207 190 181 181 175 177 177 176 177 180 182 183 185 176 169 165 179 184 170 188 144 72 30 26 28 32 32 8 2 11 11 14 28
229 215 221 238 266 260 2 290 277 264 259 234 222 216 219 207 195 182 176 177 177 175 173 174 175 178 180 185 186 188 185 180 180 174 168 176 160 134 39 30 31 33 27 6 355 7 8 353 36
236 165 207 212 218 269 223 271 266 292 267 249 217 207 200 191 185 177 176 174 170 167 167 171 172 175 180 186 188 185 184 178 166 166 162 170 158 141 62 48 39 39 24 4 339 354 2 7 38
142 110 87 85 181 243 206 216 248 239 225 256 200 197 186 176 174 169 164 161 161 161 164 166 168 173 183 187 192 191 185 182 173 174 169 168 164 165 86 69 46 38 42 39 345 5 19 34 49
187 165 132 203 205 253 151 203 253 249 246 248 245 199 182 172 170 167 165 165 162 164 166 167 170 175 183 187 193 192 189 188 184 176 171 164 165 164 126 93 62 48 44 55 65 25 59 66 66
180 192 173 208 199 251 140 232 236 253 276 261 262 194 171 175 175 174 172 169 168 169 171 173 175 177 182 185 191 194 192 187 187 180 173 171 167 168 149 120 87 69 56 71 83 51 76 80 123
182 208 144 102 52 274 210 260 267 248 250 230 215 183 179 178 180 179 174 176 176 176 178 179 180 181 183 186 189 194 193 193 190 185 182 173 175 175 158 149 128 99 92 81 80 94 102 103 106
179 138 146 222 216 238 229 262 250 242 242 211 210 208 189 182 180 181 181 181 182 183 182 183 186 185 184 187 191 193 195 194 191 190 189 180 182 178 168 167 157 134 120 109 93 112 104 124 122
160 175 181 215 222 242 257 250 199 232 217 209 202 201 194 187 186 183 184 184 184 182 184 185 185 184 188 191 192 194 194 194 193 192 194 188 187 183 180 176 166 165 145 153 137 129 117 123 127
222 206 179 182 206 228 278 257 158 245 258 236 205 189 187 188 186 185 181 180 181 185 185 188 187 188 194 194 194 195 194 195 196 196 195 195 187 188 185 184 176 173 173 154 170 151 148 129 132
Height
802 800 800 798 805 802 800 796 792 792 791 785 786 786 786 785 789 798 800 799 801 804 807 809 810 812 813 814 815 815 815 814 814 815 814 813 813 812 811 810 810 809 807 807 806 804 803 802 801
802 801 800 797 806 805 790 789 795 787 786 787 788 787 787 788 790 795 798 799 802 805 808 809 811 813 814 815 815 815 815 815 816 816 815 814 813 813 812 810 809 807 806 805 804 803 802 800 799
802 801 798 800 805 800 793 790 785 787 787 787 788 788 786 789 793 794 798 800 804 807 808 810 811 813 815 815 815 816 817 817 816 816 816 815 814 813 812 811 809 807 805 804 803 801 800 798 797
804 801 804 804 802 796 793 786 786 787 788 788 786 788 790 794 794 797 799 802 805 807 809 811 813 814 815 816 817 817 817 818 818 817 816 816 815 813 812 811 809 807 805 804 802 800 798 797 795
805 801 804 806 802 796 790 788 788 787 785 786 788 787 789 796 797 798 801 803 806 808 810 812 814 815 816 817 817 817 818 818 817 816 816 815 814 813 811 809 808 806 804 802 801 800 798 796 795
802 804 807 802 793 795 790 787 788 787 785 787 789 788 790 797 797 799 802 804 807 808 810 813 814 815 816 817 817 818 818 817 817 817 815 814 813 812 810 808 807 805 803 801 799 798 796 795 793
802 804 801 801 798 796 787 788 788 784 784 785 785 787 791 796 799 800 803 806 808 809 810 812 814 815 816 817 818 818 818 818 817 816 815 814 813 811 809 806 805 804 802 800 798 795 794 793 791
802 802 809 800 794 791 789 788 787 785 783 787 786 785 788 793 798 801 803 805 807 809 810 812 813 814 816 817 818 819 819 818 817 816 815 814 812 810 808 806 805 803 801 799 797 795 793 790 788
806 805 801 799 802 788 790 789 787 788 785 785 785 785 791 794 797 801 804 806 808 809 810 812 813 814 816 818 818 819 819 819 818 816 815 814 812 810 808 805 804 802 801 798 796 794 792 789 786
802 803 795 793 793 792 791 792 788 788 785 783 783 789 792 795 798 800 801 804 806 808 810 812 814 815 816 818 818 819 819 818 817 816 815 814 812 810 808 806 804 803 801 798 795 793 791 789 787
806 797 794 792 794 796 794 793 790 787 785 775 774 778 788 792 795 797 798 800 803 806 809 811 813 814 816 818 818 818 818 818 817 816 816 814 813 811 809 808 806 804 802 800 797 794 792 789 786
807 798 798 796 797 797 794 792 789 785 775 776 776 781 785 788 790 792 794 797 801 805 808 809 811 813 815 817 818 818 818 817 817 816 815 815 813 811 810 808 807 805 803 800 797 795 792 788 785
805 798 800 797 798 797 796 791 789 779 774 775 780 783 783 784 786 789 792 795 799 802 805 807 809 811 813 814 816 817 817 817 817 816 814 814 813 812 810 809 808 807 805 802 798 795 792 787 783
800 800 797 795 794 795 794 785 791 768 771 773 775 776 778 779 782 787 790 792 794 798 801 805 808 810 812 814 815 816 816 816 816 816 815 814 814 812 810 809 808 806 804 801 797 794 791 788 785
801 801 794 791 791 792 793 787 779 763 770 768 769 771 773 775 778 781 784 787 790 793 798 801 805 808 811 813 814 816 816 816 816 816 815 814 813 812 810 809 808 806 804 801 798 796 792 788 786
802 802 797 788 793 790 791 769 762 766 766 764 763 763 768 771 773 777 780 784 788 791 794 799 802 805 808 811 813 814 815 816 817 816 815 814 813 812 811 810 809 807 804 801 798 797 793 790 786
803 793 797 788 790 792 793 771 767 768 766 760 760 760 761 765 770 773 777 781 784 788 792 796 800 802 805 808 811 812 814 815 816 816 816 815 814 813 812 810 809 807 804 802 800 798 795 792 788
793 801 797 789 788 792 788 778 765 764 766 760 758 758 758 759 762 768 772 775 782 785 790 794 798 801 804 807 810 811 813 813 814 816 817 815 815 813 813 812 810 807 805 803 801 800 797 793 791
796 797 792 788 790 791 780 773 763 758 760 757 752 752 755 756 759 766 769 773 777 782 785 790 794 799 802 806 809 811 812 813 813 813 815 815 815 814 813 812 811 808 806 804 802 801 798 795 793
795 796 794 790 792 793 778 773 757 753 748 745 744 743 749 753 759 764 766 769 772 777 782 787 792 796 800 804 806 808 810 811 812 812 813 815 814 814 813 812 811 810 808 805 803 801 799 797 796
794 791 793 793 791 790 787 759 747 743 745 745 744 745 750 749 752 758 763 766 770 774 779 785 789 794 798 802 805 807 808 809 811 812 813 813 814 813 813 812 811 810 809 806 804 802 801 799 797
791 788 787 793 798 794 792 767 743 742 740 741 737 741 742 748 751 756 760 764 768 773 779 785 789 793 797 800 803 805 807 808 808 810 811 812 812 812 812 811 810 810 809 807 806 805 802 801 799
779 789 790 791 793 793 784 789 741 749 737 724 729 733 739 744 749 753 758 763 767 772 777 784 788 792 795 799 801 802 805 807 808 809 811 812 812 812 812 811 810 809 809 808 807 806 805 803 802
786 790 796 798 794 796 776 776 737 736 730 722 727 730 737 742 748 753 758 762 766 771 777 782 786 792 795 797 800 801 803 805 807 808 810 811 811 811 811 811 811 810 808 807 807 806 806 805 803
784 782 799 800 802 775 784 784 734 726 729 726 722 728 735 741 747 751 756 760 764 768 774 780 784 788 792 795 799 800 801 803 806 807 808 809 810 810 810 811 810 810 808 807 807 807 806 806 806
777 770 777 778 785 762 793 761 726 723 728 727 726 724 733 741 746 750 755 759 763 768 773 778 782 787 790 793 797 799 801 802 804 805 807 807 808 809 809 810 810 809 808 807 807 807 807 807 807
778 779 768 795 828 780 750 737 725 722 724 725 727 729 731 736 743 748 753 758 764 767 771 775 780 785 788 790 794 797 799 801 802 803 805 806 807 807 809 810 810 809 809 807 807 808 807 808 809
755 756 774 778 772 767 741 743 715 718 712 720 728 730 731 734 740 745 751 755 761 766 771 775 779 782 785 788 792 794 797 799 800 802 804 804 806 807 807 809 809 809 809 808 807 807 808 808 808
752 754 758 754 756 745 740 717 704 700 701 708 715 724 728 732 735 740 747 753 759 764 768 771 775 780 783 785 789 792 794 796 798 800 803 804 805 806 807 808 809 809 808 808 808 807 808 809 810
726 724 729 738 754 749 743 716 710 710 713 715 712 718 725 730 734 738 744 749 755 761 765 769 772 775 780 783 786 790 792 794 796 798 801 802 803 806 807 807 808 809 809 808 808 808 809 810 811